Regional Weather Roundup
Issued by NWS

Home | Current Version | Previous Version | Graphics & Text | Print | Product List | Glossary On
Versions: 1 2 3 4 5 6 7 8 9 10 11 12 13 14 15 16 17 18 19 20 21 22 23 24 25 26 27 28 29 30 31 32 33 34 35 36 37 38 39 40 41 42 43 44 45 46 47 48 49 50
000
ASUS43 KMPX 262001
RWRMN
WEATHER ROUNDUP FOR MINNESOTA
NATIONAL WEATHER SERVICE TWIN CITIES/CHANHASSEN MN
300 PM CDT TUE JUL 26 2016


NOTE: "FAIR" INDICATES FEW OR NO CLOUDS BELOW 12,000 FEET WITH NO
SIGNIFICANT WEATHER AND/OR OBSTRUCTIONS TO VISIBILITY. N/A MEANS
CURRENT SKY AND/OR WEATHER CONDITIONS ARE NOT AVAILABLE.

MNZ060>063-068>070-262100-
   Twin Cities Metro

CITY           SKY/WX    TMP DP  RH WIND       PRES   REMARKS
TWIN CITIES    MOSUNNY   90  61  37 SW16G24   29.98F HX  90
ST PAUL        SUNNY     89  62  40 SW17G25   29.97F
CRYSTAL        SUNNY     89  62  40 SW18G25   29.97F
BLAINE         MOSUNNY   90  61  37 SW14G21   29.97F
LAKEVILLE      SUNNY     86  66  51 SW6G16    30.01F
EDEN PRAIRIE   SUNNY     89  65  44 SW16      29.98F HX  91
LAKEVILLE      SUNNY     86  66  51 SW6G16    30.01F
SOUTH ST PAUL  SUNNY     89  59  36 SW14      29.98F
LAKE ELMO      FAIR      88  64  45 SW13      29.99F
$$
MNZ001>005-007-008-013>017-022>024-027-028-262100-
   Northwest Minnesota

CITY           SKY/WX    TMP DP  RH WIND       PRES   REMARKS
BEMIDJI        MOSUNNY   81  68  65 NE3       29.97S
HALLOCK        SUNNY     82  66  57 N9        29.96S
ROSEAU         MOSUNNY   81  70  69 N9        29.98S
WARROAD        SUNNY     79  66  65 E8        29.99S
THIEF RVR FALL MOSUNNY   84  65  52 NE8       29.97F
CROOKSTON      SUNNY     84  63  48 NE9       29.95F
FOSSTON        MOSUNNY   84  70  61 N7        29.96F
DETROIT LAKES  MOSUNNY   81  68  65 S6        29.99R
MOORHEAD       SUNNY     81  70  69 S3        29.96R
PARK RAPIDS    MOSUNNY   79  65  62 S6        29.97F
MAHNOMEN       CLOUDY    78  67  69 NE3       29.96S
$$
MNZ006-009>011-018-025>026-262100-
   North Central Minnesota

CITY           SKY/WX    TMP DP  RH WIND       PRES   REMARKS
BAUDETTE       SUNNY     83  65  54 N7        29.98S
FLAG ISLAND    SUNNY     77  54  44 NW3       29.98F
INTL FALLS     PTSUNNY   82  63  52 N6        29.95F
WASKISH        MOSUNNY   84  66  54 W6        29.96S
BIG FORK       MOSUNNY   84  63  48 NE6       29.97S
LONGVILLE      CLOUDY    75  68  78 CALM      29.98F
GRAND RAPIDS   CLOUDY    77  67  71 VRB3      29.99F
CRANE LAKE     CLOUDY    81  61  50 NW6       29.97S
ORR            CLOUDY    82  61  47 CALM      29.95R
COOK           CLOUDY    81  64  57 NW3       29.97S
WALKER         MOCLDY    74  69  85 SW7       29.97R
$$
MNZ012-019>021-037-262100-
   Northeast Minnesota

CITY           SKY/WX    TMP DP  RH WIND       PRES   REMARKS
DULUTH         CLOUDY    82  66  58 W15       29.97F
ELY            MOSUNNY   79  63  57 NW5       29.97R
HIBBING        CLOUDY    78  68  71 SW7       29.97R
EVELETH        CLOUDY    83  64  52 CALM      29.98R
DULUTH HARBOR  CLOUDY    84  70  61 W8        29.93F
TWO HARBORS    CLOUDY    84  73  70 W7        29.93R HX  91
SILVER BAY     PTSUNNY   84  68  58 CALM      29.91S
GRAND MARAIS     N/A     64  59  83 SW9       29.91S
G MARAIS ARPRT CLOUDY    81  61  50 NW6       29.97S
$$
MNZ029>031-032-039>041-046>048-054>057-064-262100-
   West Central Minnesota

CITY           SKY/WX    TMP DP  RH WIND       PRES   REMARKS
FERGUS FALLS   CLOUDY    82  64  54 MISG      29.96F
WHEATON        PTSUNNY   84  70  61 S3        29.97F
MORRIS         CLOUDY    84  72  65 SW7       29.96S
ALEXANDRIA     CLOUDY    87  70  56 SW13      29.99F HX  92
ELBOW LAKE     FAIR      84  71  64 W6        29.98R HAZE
WADENA         CLOUDY    79  66  65 CALM      29.97S
GLENWOOD       MOSUNNY   88  72  58 SW13      30.00F HX  94
APPLETON       CLOUDY    88  68  51 SW8       29.97S HX  91
BENSON         CLOUDY    84  70  61 SW10      29.98S
ORTONVILLE     CLOUDY    82  68  61 SW13      29.97S
MADISON        PTSUNNY   84  64  51 SW9       30.00R
WILLMAR        FAIR      84  70  61 SW8       30.01S
$$
MNZ033>034-036-042>043-049>051-058-059-262100-
   Central Minnesota

CITY           SKY/WX    TMP DP  RH WIND       PRES   REMARKS
ST CLOUD       SUNNY     86  71  60 SW12      29.98R HX  91
SAUK CENTRE    FAIR      86  72  62 W10G16    29.98F HX  91
PAYNESVILLE    CLOUDY    84  69  59 S7        30.00S
AITKIN         MOSUNNY   81  64  57 CALM      29.98S
PINE RIVER     CLOUDY    75  68  78 CALM      30.01F
BRAINERD       CLOUDY    81  64  56 CALM      29.98F
STAPLES        CLOUDY    81  66  61 CALM      29.97F
LONG PRAIRIE   FAIR      84  72  65 S6        29.98F
LITTLE FALLS   MOSUNNY   84  64  51 W6        29.98F
LITCHFIELD     SUNNY     88  66  48 SW8       29.99F HX  90
BUFFALO        SUNNY     86  65  48 S12       29.99F
MAPLE LAKE     SUNNY     87  70  57 SW8       30.00S HX  91
HUTCHINSON     SUNNY     87  66  50 SW8       30.02S
$$
MNZ037-044-045-052-053-262100-
   East Central Minnesota

CITY           SKY/WX    TMP DP  RH WIND       PRES   REMARKS
PRINCETON      SUNNY     90  70  51 SW10G18   29.98R HX  95
MORA           SUNNY     86  68  54 W6        29.99S
CAMBRIDGE      SUNNY     90  70  51 SW9       29.96R HX  95
RUSH CITY      SUNNY     87  68  53 SW6       29.97F HX  90
MOOSE LAKE     CLOUDY    81  64  57 W6        29.96S
HINCKLEY       FAIR      82  72  69 SW9       29.97F
CLOQUET        MOSUNNY   82  63  51 W12       29.98R
MCGREGOR       MOSUNNY   79  68  69 W3        29.99S
$$
MNZ071>073-080-081-089-090-097-098-262100-
   Southwest Minnesota

CITY           SKY/WX    TMP DP  RH WIND       PRES   REMARKS
MONTEVIDEO     CLOUDY    88  70  55 SW8       30.01S HX  92
GRANITE FALLS  CLOUDY    88  67  49 S8        30.01S HX  90
CANBY          CLOUDY    88  64  45 W10       30.02R
MARSHALL       MOSUNNY   88  66  48 SW10      30.02S HX  90
REDWOOD FALLS  SUNNY     88  64  44 S12       30.00F
OLIVIA         SUNNY     82  64  54 S8        30.01S
WINDOM         SUNNY     84  63  48 S8        30.05S
WORTHINGTON    SUNNY     84  67  56 S9        30.06S
JACKSON        SUNNY     84  63  48 S3        30.07S
TRACY          SUNNY     86  66  51 SW8       30.03S
SLAYTON        SUNNY     85  63  46 S12       30.06R HAZE
$$
MNZ065>067-074>077-082>085-091>093-262100-
   South Central Minnesota

CITY           SKY/WX    TMP DP  RH WIND       PRES   REMARKS
MANKATO        SUNNY     84  66  54 S9        30.03F
NEW ULM        SUNNY     86  66  51 SW9       30.02S
ST JAMES       SUNNY     81  63  54 S7        30.04S
FAIRMONT       SUNNY     84  61  45 S7        30.04F
GLENCOE        SUNNY     87  70  56 S7        30.00F HX  92
FARIBAULT      SUNNY     86  70  58 S7        30.04F HX  90
OWATONNA       SUNNY     84  64  51 SW5       30.04F
WASECA         SUNNY     82  68  61 S6        30.06F
ALBERT LEA     SUNNY     84  66  54 SW5       30.06F
$$
MNZ078>079-086>088-094>096-262100-
   Southeast Minnesota

CITY           SKY/WX    TMP DP  RH WIND       PRES   REMARKS
ROCHESTER      MOSUNNY   84  68  58 CALM      30.06F
RED WING       SUNNY     90  63  40 W9        29.99F HX  90
STANTON        SUNNY     88  64  45 W7        30.01F
DODGE CENTER   SUNNY     86  64  48 W6        30.06F
WINONA         SUNNY     90  66  45 CALM      30.02F HX  92
AUSTIN         SUNNY     82  66  57 CALM      30.06F
PRESTON        SUNNY     83  65  54 NW3       30.07F
$$
ABBREVIATIONS USED IN REMARKS
   TC - TEMPERATURES IN CELSIUS
  WCI - WIND CHILL INDEX
   HX - HEAT INDEX
  VSB - VISIBILITY
$$




USA.gov is the U.S. government's official web portal to all federal, state and local government web resources and services.